Location: LDNL
(36.4545°S, 141.6685°E)
Time: 01:34:21
(UTC+10:00)

Courier 1B - Pass Details

Date: 10 August 2022
Orbit: 962 x 1209 km, 28.3° (Epoch: 27 September)

Event Time Altitude Azimuth Distance (km) Brightness Sun altitude
Exits shadow 03:28:25 16° 60° (ENE) 2,647 10.0 -47.1°
Drops below altitude 10° 03:29:49 10° 64° (ENE) 3,075 10.4 -46.8°
Sets 03:32:42 0° 70° (ENE) 4,005 11.2 -46.3°
